sat.trackr.live / text

‹ back to catalog

STARLINK-30443

NORAD 57894 · 2023-146D

PAYLOAD ACTIVE UNKNOWN

§ Identity

Operator
Country
US
Launch date
2023-09-20
Launch site
AFETR
Launch vehicle
Mass (kg)
RCS (m²)

Purposes: comms

External: N2YO · Heavens-Above · Gunter

§ Orbital elements

Epoch: 2026-05-24T23:20:23.992224Z

Period
94.27 min
Inclination
43.0013°
Eccentricity
0.0001192
Mean motion
15.27577533 rev/d
Perigee alt
482.2 km
Apogee alt
483.9 km
Semi-major
6,861.2 km
B*
1.7366e-5
RAAN
243.3202°
Arg perigee
279.6506°
Mean anomaly
80.4210°
Rev number
14,872

§ Raw data

STARLINK-304431 57894U 23146D   26144.97249991  .00000216  00000+0  17366-4 0  99912 57894  43.0013 243.3202 0001192 279.6506  80.4210 15.27577533148722

JSON: /api/v1/satellites/57894 · /tle

For live sub-satellite position, see the globe view (requires WebGL).

§ Visibility from observer

Set your observer location to see the next 7 days of passes ≥ 10°. The values pass through the URL so the page stays shareable.

No JS? Fill the form by hand. The geolocation button needs JavaScript.